Location: Cabri�res
(43.7840°N, 5.4986°E)
Time: 01:11:30
(UTC+00:00)

Cosmos 1023 Rocket - Pass Details

Date: 09 April 2020
Orbit: 736 x 772 km, 74.1° (Epoch: 05 June)

Event Time Altitude Azimuth Distance (km) Brightness Sun altitude
Rises 19:20:23 0° 195° (SSW) 3,199 7.6 -12.1°
Reaches altitude 10° 19:22:45 10° 195° (SSW) 2,273 6.9 -12.5°
Maximum altitude 19:27:54 81° 109° (ESE) 764 4.4 -13.3°
Drops below altitude 10° 19:33:02 10° 22° (NNE) 2,266 7.0 -14.1°
Sets 19:35:23 0° 22° (NNE) 3,189 7.8 -14.5°
